Location: Newark
(36.7000°N, 45.1333°E)
Time: 13:15:24
(UTC+00:00)

Hubble Space Telescope - Pass Details

Date: 30 January 2020
Orbit: 536 x 540 km, 28.5° (Epoch: 25 February)

Event Time Altitude Azimuth Distance (km) Brightness Sun altitude
Exits shadow 02:23:18 - 199° (SSW) 2,051 3.6 -20.2°
Reaches altitude 10° 02:24:41 10° 183° (S) 1,774 3.5 -20.0°
Maximum altitude 02:26:17 12° 160° (SSE) 1,648 3.6 -19.6°
Drops below altitude 10° 02:27:54 10° 137° (SE) 1,776 4.1 -19.3°
Sets 02:31:26 0° 106° (ESE) 2,669 6.0 -18.6°
